This is the latest recevied weather packets stored in our database for station/object SA7AHC. If no packets are shown the sender has not sent any weather packets the latest 10 day(s).
| Time | Temp. | Humidity | Pressure | Rain* | Wind** | Luminosity | Snow |
|---|---|---|---|---|---|---|---|
| 1777773247 | 11.11° C | 68% | 1010.9 hPa | 0 mm | - | 0 W/m² | - |
| 1777772647 | 11.11° C | 67% | 1011 hPa | 0 mm | - | 0 W/m² | - |
| 1777772049 | 11.67° C | 65% | 1011 hPa | 0 mm | - | 0 W/m² | - |
| 1777771452 | 12.22° C | 63% | 1011.1 hPa | 0 mm | - | 0 W/m² | - |
| 1777770849 | 13.33° C | 61% | 1011.2 hPa | 0 mm | - | 0 W/m² | - |
| 1777770248 | 13.33° C | 60% | 1011.4 hPa | 0 mm | - | 0 W/m² | - |
| 1777769647 | 13.33° C | 60% | 1011.4 hPa | 0 mm | - | 0 W/m² | - |
| 1777769048 | 13.33° C | 60% | 1011.6 hPa | 0 mm | - | 0 W/m² | - |
| 1777768447 | 13.33° C | 60% | 1011.7 hPa | 0 mm | - | 0 W/m² | - |
| 1777767848 | 13.33° C | 60% | 1011.7 hPa | 0 mm | - | 0 W/m² | - |
| 1777767248 | 13.33° C | 59% | 1011.7 hPa | 0 mm | - | 0 W/m² | - |
| 1777766648 | 13.89° C | 59% | 1011.7 hPa | 0 mm | - | 0 W/m² | - |
| 1777766051 | 13.89° C | 57% | 1011.7 hPa | 0 mm | - | 0 W/m² | - |
| 1777765442 | 13.89° C | 57% | 1012 hPa | 0 mm | - | 0 W/m² | - |
| 1777764841 | 13.89° C | 57% | 1012 hPa | 0 mm | - | 0 W/m² | - |
| 1777764237 | 14.44° C | 57% | 1012 hPa | 0 mm | - | 0 W/m² | - |
| 1777763633 | 14.44° C | 56% | 1012.2 hPa | 0 mm | - | 0 W/m² | - |
| 1777763041 | 14.44° C | 55% | 1012.3 hPa | 0 mm | - | 0 W/m² | - |
| 1777762429 | 14.44° C | 54% | 1012.3 hPa | 0 mm | - | 0 W/m² | - |
| 1777761829 | 14.44° C | 54% | 1012.4 hPa | 0 mm | - | 0 W/m² | - |
| 1777761220 | 14.44° C | 55% | 1012.4 hPa | 0 mm | - | 0 W/m² | - |
| 1777760623 | 13.89° C | 55% | 1012.4 hPa | 0 mm | - | 0 W/m² | - |
| 1777760024 | 13.89° C | 56% | 1012.4 hPa | 0 mm | - | 0 W/m² | - |
| 1777759423 | 13.89° C | 55% | 1012.6 hPa | 0 mm | - | 0 W/m² | - |
| 1777758816 | 13.89° C | 55% | 1012.6 hPa | 0 mm | - | 0 W/m² | - |
* Rain latest hour (hover to see other rain measurements)
** Current wind speed in m/s (hover to see current wind gust speed)